Fort Knox, KY

4:14 PM EDT on June 25, 2017 (GMT -0400)
Godman Army Air Field

Weather History for KFTK - September, 2013

Change the Weather History Date:

Thursday, September 26, 2013

  Actual Average Record
Temperature  
Mean Temperature 65 °F -  
Max Temperature 76 °F 73 °F 91 °F (1998)
Min Temperature 54 °F 51 °F 37 °F (2001)
Growing Degree Days 15 (Base 50)    
Moisture  
Dew Point 55 °F    
Average Humidity 65    
Maximum Humidity 97    
Minimum Humidity 41    
Precipitation  
Precipitation 0.00 in - - ()
Sea Level Pressure  
Sea Level Pressure 30.00 in    
Wind  
Wind Speed 4 mph (NNE)    
Max Wind Speed 8 mph    
Max Gust Speed -    
Visibility 10 miles    
Events Rain    
Averages and records for this station are not official NWS values.
T = Trace of Precipitation, MM = Missing Value Source: NWS Daily Summary

Daily Weather History Graph

Daily Weather History Graph

Search for Another Location

Airport or City:

Trip Planner

Search our weather history database for the weather conditions in past years. The results will help you decide how hot, cold, wet, or windy it might be!

Date:

Astronomy

Sep. 26, 2013 Rise Set
Actual Time 7:35 AM EDT 7:34 PM EDT
Civil Twilight 7:09 AM EDT 8:00 PM EDT
Nautical Twilight 6:38 AM EDT 8:30 PM EDT
Astronomical Twilight 6:07 AM EDT 9:01 PM EDT
Moon No Moon Rise 2:21 PM EDT (9/26)
Length of Visible Light 12h 51m
Length of Day
11h 58m
Waning Gibbous, 55% of the Moon is Illuminated
Sep 26
Waning Gibbous
Sep 26
Last Quarter
Oct 4
New
Oct 11
First Quarter
Oct 18
Full

Hourly Weather History & Observations

Time (EDT) Temp. Dew Point Humidity Pressure Visibility Wind Dir Wind Speed Gust Speed Precip Events Conditions
12:58 AM 63.9 °F 59.9 °F 87% 29.91 in 10.0 mi Calm Calm - N/A   Clear
1:58 AM 61.9 °F 59.4 °F 91% 29.91 in 10.0 mi NNE 5.8 mph - N/A   Partly Cloudy
2:58 AM 61.3 °F 57.9 °F 89% 29.91 in 10.0 mi NNE 5.8 mph - N/A   Clear
3:58 AM 59.7 °F 56.8 °F 90% 29.92 in 10.0 mi NNE 3.5 mph - N/A   Clear
4:58 AM 59.2 °F 55.8 °F 88% 29.93 in 10.0 mi NNE 4.6 mph - N/A   Clear
5:58 AM 56.1 °F 55.0 °F 96% 29.94 in 10.0 mi Calm Calm - N/A   Clear
6:58 AM 56.1 °F 55.0 °F 96% 29.96 in 10.0 mi Calm Calm - N/A   Clear
7:58 AM 54.5 °F 53.6 °F 97% 29.97 in 5.0 mi Calm Calm - N/A   Clear
8:58 AM 60.3 °F 56.1 °F 86% 29.99 in 10.0 mi NNE 5.8 mph - N/A   Clear
9:58 AM 64.2 °F 56.8 °F 77% 30.02 in 10.0 mi NNE 5.8 mph - N/A   Clear
10:58 AM 66.9 °F 58.6 °F 75% 30.03 in 10.0 mi ENE 6.9 mph - N/A   Clear
11:58 AM 70.5 °F 58.5 °F 66% 30.03 in 10.0 mi Variable 4.6 mph - N/A   Clear
12:19 PM 71.6 °F 59.0 °F 64% 30.03 in 10.0 mi East 6.9 mph - N/A Rain Light Rain
12:49 PM 73.4 °F 57.2 °F 57% 30.03 in 10.0 mi NE 4.6 mph - N/A   Partly Cloudy
12:58 PM 73.2 °F 53.4 °F 50% 30.03 in 10.0 mi NNE 6.9 mph - 0.00 in   Partly Cloudy
1:13 PM 73.4 °F 53.6 °F 50% 30.03 in 10.0 mi Variable 2.3 mph - N/A Rain Light Rain
1:23 PM 73.4 °F 55.4 °F 53% 30.02 in 10.0 mi Variable 4.6 mph - N/A   Clear
1:28 PM 73.4 °F 55.4 °F 53% 30.02 in 10.0 mi NE 8.1 mph - N/A Rain Light Rain
1:32 PM 75.2 °F 55.4 °F 50% 30.02 in 10.0 mi Variable 5.8 mph - N/A   Clear
1:34 PM 75.2 °F 55.4 °F 50% 30.02 in 10.0 mi NNW 5.8 mph - N/A Rain Light Rain
1:38 PM 75.2 °F 53.6 °F 47% 30.02 in 10.0 mi Variable 4.6 mph - N/A   Clear
1:40 PM 75.2 °F 53.6 °F 47% 30.02 in 10.0 mi Variable 5.8 mph - N/A   Light Drizzle
1:44 PM 75.2 °F 53.6 °F 47% 30.02 in 10.0 mi North 4.6 mph - N/A   Clear
1:47 PM 75.2 °F 53.6 °F 47% 30.02 in 10.0 mi North 8.1 mph - N/A   Light Drizzle
1:50 PM 75.2 °F 51.8 °F 44% 30.02 in 10.0 mi Variable 4.6 mph - N/A   Clear
1:58 PM 74.5 °F 50.7 °F 43% 30.02 in 10.0 mi NW 8.1 mph - 0.00 in   Clear
2:12 PM 75.2 °F 51.8 °F 44% 30.02 in 10.0 mi North 5.8 mph - N/A Rain Light Rain
2:14 PM 75.2 °F 50.0 °F 41% 30.02 in 10.0 mi Variable 3.5 mph - N/A   Clear
2:28 PM 75.2 °F 51.8 °F 44% 30.01 in 10.0 mi Variable 2.3 mph - N/A Rain Light Rain
2:38 PM 75.2 °F 53.6 °F 47% 30.01 in 10.0 mi North 8.1 mph - N/A   Clear
2:55 PM 75.2 °F 52.2 °F 44% 30.00 in 10.0 mi Calm Calm - N/A   Clear
3:55 PM 76.1 °F 54.0 °F 46% 29.99 in 10.0 mi NE 5.8 mph - N/A   Clear
4:55 PM 75.9 °F 54.1 °F 47% 29.99 in 10.0 mi NE 5.8 mph - N/A   Clear
5:55 PM 75.7 °F 53.6 °F 46% 30.00 in 10.0 mi NE 5.8 mph - N/A   Clear
6:55 PM 73.4 °F 54.0 °F 50% 30.01 in 10.0 mi East 4.6 mph - N/A   Clear
7:55 PM 63.0 °F 57.6 °F 82% 30.02 in 10.0 mi North 3.5 mph - N/A   Clear
8:55 PM 60.4 °F 57.0 °F 88% 30.04 in 10.0 mi Calm Calm - N/A   Clear
9:55 PM 59.0 °F 54.9 °F 86% 30.05 in 10.0 mi Calm Calm - N/A   Clear
10:55 PM 57.4 °F 55.2 °F 92% 30.05 in 10.0 mi Calm Calm - N/A   Clear
11:55 PM 56.5 °F 55.0 °F 95% 30.06 in 10.0 mi Calm Calm - N/A   Clear